User: anonymous   Login
Location: *
(51.5000°N, 0.1100°W)
Time: 20:34:21
(UTC+00:00)
Language:

NPP - Orbit

View from above orbital plane
View from above orbital plane
View from above satellite
View from above satellite

Ground track
Ground track

The orbit data is extracted from the following two-line orbital elements,

1 37849U 11061A   24199.56257119  .00000257  00000-0  14284-3 0  9997
2 37849  98.7222 137.0871 0001436 121.6030 238.5286 14.19530808659189
Epoch (UTC): 17 July 2024 13:30:06
Eccentricity: 0.0001436
inclination: 98.7222°
perigee height: 826 km
apogee height: 828 km
right ascension of ascending node: 137.0871°
argument of perigee: 121.6030°
revolutions per day: 14.19530808
mean anomaly at epoch: 238.5286°
orbit number at epoch: 65918

The dashed part of the orbit path shows where the satellite is in the earth's shadow,  

DLR